Regional Weather Roundup
Issued by NWS Jackson, KY

Home | Current Version | Previous Version | Text Only | Print | Product List | Glossary On
Versions: 1 2 3 4 5 6 7 8 9 10 11 12 13 14 15 16 17 18 19 20 21 22 23 24 25 26 27 28 29 30 31 32 33 34 35 36 37 38 39 40 41 42 43 44 45 46 47
000
ASUS43 KJKL 280210
RWRJKL

EAST KENTUCKY HOURLY WEATHER ROUNDUP
NATIONAL WEATHER SERVICE JACKSON KY
1000 PM EDT MON APR 27 2015

NOTE: "FAIR" INDICATES FEW OR NO CLOUDS BELOW 12,000 FEET WITH
NO SIGNIFICANT WEATHER AND/OR OBSTRUCTIONS TO VISIBILITY.

* THESE REPORTS ARE NOT UNDER NWS QUALITY CONTROL AND MAY NOT
  REPORT WEATHER SUCH AS PRECIPITATION AND FOG.

KYZ079-080-083-085-087-088-110-112-115-119-120-280300
...EASTERN KENTUCKY...

CITY           SKY/WX    TMP DP  RH WIND       PRES   REMARKS
JACKSON        CLOUDY    55  33  43 VRB5      29.97R
LONDON         MOCLDY    54  34  46 CALM      29.98R
SOMERSET*      CLEAR     50  37  62 CALM      30.00R
MONTICELLO*    CLEAR     46  42  86 CALM      30.02R
MIDDLESBORO*   CLEAR     50  38  62 CALM      29.99R
HARLAN APT*    PTCLDY    52  32  46 N8        29.97R
HAZARD APT*    CLOUDY    54  36  50 CALM      29.97R
BLACK MTN*       N/A     41  30  65 VRB9        N/A
PIKEVILLE APT* CLOUDY    54  34  47 N5        29.97R
BIG SANDY*     CLEAR     51  35  54 NE6       29.97R
MOREHEAD APT*  CLOUDY    52  36  54 NE8G17    30.02R
$$

KYZ035-036-041-042-044-050-067-078-099-280300
...CENTRAL KENTUCKY...

CITY           SKY/WX    TMP DP  RH WIND       PRES   REMARKS
MT STERLING*   PTCLDY    52  37  58 NE12      30.02R
FLEMING/MASON* CLEAR     48  37  66 NE9       30.04R
DANVILLE*      CLEAR     52  37  58 N9        30.01R
RICHMOND*      CLEAR     54  36  50 N5        29.98R
LEXINGTON      CLEAR     51  39  63 N9        30.00R
FRANKFORT      CLEAR     54  37  52 N7        30.00R
$$

KYZ091>093-OHZ055-061-077-WVZ005-015-034-035-042-280300
...SOUTHERN OHIO/WEST VIRGINIA...

CITY           SKY/WX    TMP DP  RH WIND       PRES   REMARKS
COVINGTON      PTCLDY    52  37  56 N13       30.03R
COLUMBUS       MOCLDY    45  34  65 N6        30.05R
DAYTON         CLOUDY    48  37  65 N10       30.07R
WILMINGTON     CLOUDY    46  38  73 NE9       30.05R
HUNTINGTON     MOCLDY    51  36  56 N8        30.00R
CHARLESTON     MOCLDY    50  34  54 N9        29.99R
PINEVILLE*     CLOUDY    46  41  81 MISG      30.00R
BECKLEY        CLOUDY    47  31  53 N9        29.96R
BLUEFIELD      MOCLDY    48  29  47 VRB3      29.95R
$$

VAZ002-007-008-TNZ017-027-036-066-071-280300
...SOUTHWEST VIRGINIA/EAST TENNESSEE...

CITY           SKY/WX    TMP DP  RH WIND       PRES   REMARKS
WISE*          PTCLDY    48  28  46 CALM      29.98R
JONESVILLE*    PTCLDY    52  32  46 CALM      30.00R
ABINGDON*      CLEAR     47  34  61 CALM      29.96R
BRISTOL        PTCLDY    50  33  52 N3        29.97R
KNOXVILLE      PTCLDY    54  36  50 N8        29.96R
OAK RIDGE      CLEAR     54  38  54 CALM      29.99R
CROSSVILLE     PTCLDY    54  33  45 N6        29.98R
NASHVILLE        N/A     57  39  51 N6        29.98R
$$

...KEY TO REMARKS...
VSB - VISIBILITY IN MILES
WCI - WIND CHILL INDEX
HX  - HEAT INDEX

$$


USA.gov is the U.S. government's official web portal to all federal, state and local government web resources and services.